Mount Airy, NC

2:27 AM EDT on September 24, 2017 (GMT -0400)
Mount Airy-Surry County

Weather History for KMWK - November, 2012

Change the Weather History Date:

Monday, November 12, 2012

  Actual Average (KINT) Record (KINT)
Temperature  
Mean Temperature 60 °F -  
Max Temperature 68 °F 57 °F 78 °F (1985)
Min Temperature 51 °F 39 °F 21 °F (1973)
Degree Days  
Heating Degree Days 6    
Growing Degree Days 10 (Base 50)    
Moisture  
Dew Point 56 °F    
Average Humidity 84    
Maximum Humidity 94    
Minimum Humidity 68    
Precipitation  
Precipitation 0.36 in - - ()
Sea Level Pressure  
Sea Level Pressure 30.27 in    
Wind  
Wind Speed 5 mph (SSE)    
Max Wind Speed 12 mph    
Max Gust Speed 20 mph    
Visibility 9 miles    
Events Rain    
Averages and records for this station are not official NWS values.
T = Trace of Precipitation, MM = Missing Value Source: NWS Daily Summary

Daily Weather History Graph

Daily Weather History Graph

Search for Another Location

Airport or City:

Trip Planner

Search our weather history database for the weather conditions in past years. The results will help you decide how hot, cold, wet, or windy it might be!

Date:

Astronomy

Nov. 12, 2012 Rise Set
Actual Time 6:57 AM EST 5:15 PM EST
Civil Twilight 6:29 AM EST 5:42 PM EST
Nautical Twilight 5:58 AM EST 6:13 PM EST
Astronomical Twilight 5:28 AM EST 6:44 PM EST
Moon 5:22 AM EST (11/12) 4:18 PM EST (11/12)
Length of Visible Light 11h 13m
Length of Day
10h 18m
Waning Crescent, 2% of the Moon is Illuminated
Nov 12
Waning Crescent
Nov 13
New
Nov 20
First Quarter
Nov 28
Full
Dec 6
Last Quarter

Hourly Weather History & Observations

Time (EST) Temp. Dew Point Humidity Pressure Visibility Wind Dir Wind Speed Gust Speed Precip Events Conditions
12:15 AM 59.0 °F 51.8 °F 77% 30.39 in 10.0 mi SSE 8.1 mph - N/A   Clear
12:55 AM 59.0 °F 51.8 °F 77% 30.39 in 10.0 mi SE 6.9 mph - N/A   Scattered Clouds
1:15 AM 59.0 °F 51.8 °F 77% 30.38 in 10.0 mi South 3.5 mph - N/A   Clear
1:35 AM 57.2 °F 51.8 °F 82% 30.38 in 10.0 mi SE 5.8 mph - N/A   Clear
1:55 AM 57.2 °F 51.8 °F 82% 30.38 in 10.0 mi SSE 5.8 mph - N/A   Scattered Clouds
2:15 AM 57.2 °F 53.6 °F 88% 30.38 in 10.0 mi Calm Calm - N/A   Mostly Cloudy
2:35 AM 57.2 °F 51.8 °F 82% 30.38 in 10.0 mi SSE 3.5 mph - N/A   Overcast
2:55 AM 57.2 °F 51.8 °F 82% 30.37 in 10.0 mi Calm Calm - N/A   Overcast
3:15 AM 57.2 °F 51.8 °F 82% 30.37 in 10.0 mi Calm Calm - N/A   Overcast
3:35 AM 55.4 °F 51.8 °F 88% 30.36 in 10.0 mi SE 3.5 mph - N/A   Overcast
3:55 AM 55.4 °F 51.8 °F 88% 30.36 in 10.0 mi Calm Calm - N/A   Overcast
4:15 AM 55.4 °F 51.8 °F 88% 30.36 in 10.0 mi SSE 3.5 mph - N/A   Overcast
4:35 AM 55.4 °F 51.8 °F 88% 30.35 in 10.0 mi SE 4.6 mph - N/A   Mostly Cloudy
4:55 AM 55.4 °F 51.8 °F 88% 30.35 in 10.0 mi SE 4.6 mph - N/A   Mostly Cloudy
5:15 AM 55.4 °F 53.6 °F 94% 30.35 in 10.0 mi SSE 4.6 mph - N/A   Mostly Cloudy
5:35 AM 55.4 °F 51.8 °F 88% 30.34 in 10.0 mi Calm Calm - N/A   Mostly Cloudy
5:55 AM 55.4 °F 51.8 °F 88% 30.34 in 10.0 mi ESE 3.5 mph - N/A   Scattered Clouds
6:15 AM 55.4 °F 51.8 °F 88% 30.34 in 10.0 mi SE 3.5 mph - N/A   Scattered Clouds
6:35 AM 55.4 °F 51.8 °F 88% 30.34 in 10.0 mi SE 3.5 mph - N/A   Overcast
6:55 AM 55.4 °F 53.6 °F 94% 30.34 in 10.0 mi ESE 3.5 mph - N/A   Overcast
7:15 AM 55.4 °F 51.8 °F 88% 30.34 in 7.0 mi Calm Calm - N/A   Mostly Cloudy
7:35 AM 55.4 °F 51.8 °F 88% 30.34 in 7.0 mi SE 5.8 mph - N/A   Scattered Clouds
7:55 AM 55.4 °F 53.6 °F 94% 30.34 in 7.0 mi SSE 3.5 mph - N/A   Mostly Cloudy
8:15 AM 55.4 °F 53.6 °F 94% 30.34 in 7.0 mi SSE 4.6 mph - N/A   Mostly Cloudy
8:35 AM 57.2 °F 53.6 °F 88% 30.34 in 10.0 mi SSE 4.6 mph - N/A   Mostly Cloudy
8:55 AM 57.2 °F 53.6 °F 88% 30.34 in 10.0 mi SSE 5.8 mph - N/A   Mostly Cloudy
9:15 AM 59.0 °F 53.6 °F 82% 30.34 in 10.0 mi SSE 5.8 mph - N/A   Mostly Cloudy
9:35 AM 59.0 °F 53.6 °F 82% 30.34 in 10.0 mi SSE 6.9 mph - N/A   Mostly Cloudy
9:55 AM 59.0 °F 53.6 °F 82% 30.34 in 10.0 mi SSE 5.8 mph - N/A   Mostly Cloudy
10:15 AM 60.8 °F 55.4 °F 82% 30.34 in 10.0 mi SSE 8.1 mph - N/A   Mostly Cloudy
10:35 AM 60.8 °F 55.4 °F 82% 30.34 in 10.0 mi SSE 9.2 mph - N/A   Overcast
10:55 AM 62.6 °F 55.4 °F 77% 30.33 in 10.0 mi SSE 9.2 mph - N/A   Scattered Clouds
11:15 AM 62.6 °F 55.4 °F 77% 30.32 in 10.0 mi South 6.9 mph - N/A   Mostly Cloudy
11:35 AM 62.6 °F 55.4 °F 77% 30.32 in 10.0 mi South 6.9 mph - N/A   Overcast
11:55 AM 62.6 °F 57.2 °F 82% 30.31 in 10.0 mi SSW 6.9 mph - N/A   Overcast
12:15 PM 62.6 °F 57.2 °F 82% 30.29 in 10.0 mi South 8.1 mph - N/A   Overcast
12:35 PM 64.4 °F 57.2 °F 77% 30.27 in 10.0 mi South 4.6 mph - N/A   Overcast
12:55 PM 64.4 °F 59.0 °F 83% 30.26 in 10.0 mi SSE 6.9 mph - N/A   Mostly Cloudy
1:15 PM 68.0 °F 57.2 °F 68% 30.25 in 10.0 mi South 9.2 mph - N/A   Mostly Cloudy
1:35 PM 68.0 °F 57.2 °F 68% 30.24 in 10.0 mi South 5.8 mph - N/A   Overcast
1:55 PM 68.0 °F 57.2 °F 68% 30.22 in 10.0 mi South 4.6 mph - N/A   Overcast
2:15 PM 68.0 °F 59.0 °F 73% 30.21 in 10.0 mi SSE 11.5 mph - N/A   Mostly Cloudy
2:35 PM 68.0 °F 59.0 °F 73% 30.20 in 10.0 mi SSE 9.2 mph 18.4 mph N/A   Scattered Clouds
2:55 PM 68.0 °F 59.0 °F 73% 30.20 in 10.0 mi SSE 10.4 mph 18.4 mph N/A   Mostly Cloudy
3:15 PM 68.0 °F 57.2 °F 68% 30.20 in 10.0 mi South 4.6 mph 19.6 mph N/A   Scattered Clouds
3:35 PM 68.0 °F 59.0 °F 73% 30.20 in 10.0 mi SSE 11.5 mph - N/A   Overcast
3:55 PM 66.2 °F 59.0 °F 78% 30.20 in 10.0 mi South 6.9 mph 16.1 mph N/A   Mostly Cloudy
4:15 PM 66.2 °F 59.0 °F 78% 30.20 in 10.0 mi SSE 8.1 mph - N/A   Scattered Clouds
4:35 PM 64.4 °F 59.0 °F 83% 30.19 in 10.0 mi SE 9.2 mph - N/A   Scattered Clouds
4:55 PM 64.4 °F 59.0 °F 83% 30.19 in 10.0 mi SSE 9.2 mph 16.1 mph N/A   Scattered Clouds
5:15 PM 64.4 °F 59.0 °F 83% 30.18 in 10.0 mi SSE 8.1 mph - N/A   Scattered Clouds
5:35 PM 64.4 °F 59.0 °F 83% 30.19 in 10.0 mi SSE 4.6 mph - N/A Rain Light Rain
5:55 PM 62.6 °F 59.0 °F 88% 30.19 in 10.0 mi SSE 6.9 mph - N/A   Overcast
6:15 PM 62.6 °F 59.0 °F 88% 30.18 in 10.0 mi SSE 6.9 mph - N/A   Light Drizzle
6:35 PM 62.6 °F 59.0 °F 88% 30.18 in 7.0 mi SSE 9.2 mph - N/A Rain Light Rain
6:55 PM 62.6 °F 59.0 °F 88% 30.18 in 10.0 mi SSE 8.1 mph - 0.02 in   Mostly Cloudy
7:15 PM 62.6 °F 59.0 °F 88% 30.18 in 10.0 mi South 5.8 mph - N/A   Overcast
7:35 PM 62.6 °F 59.0 °F 88% 30.18 in 7.0 mi South 5.8 mph - 0.01 in Rain Rain
7:55 PM 62.6 °F 59.0 °F 88% 30.17 in 7.0 mi SSE 5.8 mph - 0.04 in Rain Light Rain
8:15 PM 62.6 °F 59.0 °F 88% 30.18 in 7.0 mi SSW 4.6 mph - N/A   Overcast
8:35 PM 62.6 °F 59.0 °F 88% 30.17 in 7.0 mi Calm Calm - N/A   Overcast
8:55 PM 62.6 °F 59.0 °F 88% 30.17 in 5.0 mi Calm Calm - N/A   Overcast
9:15 PM 62.6 °F 59.0 °F 88% 30.17 in 5.0 mi Calm Calm - N/A   Overcast
9:35 PM 62.6 °F 59.0 °F 88% 30.17 in 5.0 mi Calm Calm - 0.01 in   Overcast
9:55 PM 62.6 °F 59.0 °F 88% 30.17 in 5.0 mi Calm Calm - 0.01 in   Overcast
10:15 PM 62.6 °F 59.0 °F 88% 30.16 in 5.0 mi Calm Calm - N/A   Overcast
10:35 PM 62.6 °F 59.0 °F 88% 30.16 in 4.0 mi Calm Calm - N/A Rain Light Rain
10:55 PM 62.6 °F 59.0 °F 88% 30.16 in 3.0 mi Calm Calm - N/A Rain Rain
11:15 PM 60.8 °F 59.0 °F 94% 30.18 in 2.5 mi WNW 11.5 mph 16.1 mph 0.01 in Rain Rain
11:35 PM 51.8 °F 50.0 °F 94% 30.19 in 4.0 mi North 9.2 mph 18.4 mph 0.24 in Rain Heavy Rain
11:55 PM 51.8 °F 48.2 °F 88% 30.20 in 10.0 mi NW 9.2 mph 17.3 mph 0.29 in Rain Light Rain